owner,sensor,date,latitude,longitude,relative_humidity,qcFlag 
COMPS,ioos:station:USF.COMPS:C10:1,2015-10-01T00:05:00Z,27.1690,-82.9260,75.34,1111122 
COMPS,ioos:station:USF.COMPS:C10:1,2015-10-01T00:35:00Z,27.1690,-82.9260,73.17,1111122 
COMPS,ioos:station:USF.COMPS:C10:1,2015-10-01T01:05:00Z,27.1690,-82.9260,74.4,1111122 
COMPS,ioos:station:USF.COMPS:C10:1,2015-10-01T01:35:00Z,27.1690,-82.9260,72.84,1111122 
COMPS,ioos:station:USF.COMPS:C10:1,2015-10-01T02:05:00Z,27.1690,-82.9260,73.44,1111122 
COMPS,ioos:station:USF.COMPS:C10:1,2015-10-01T02:35:00Z,27.1690,-82.9260,72.4,1111122 
COMPS,ioos:station:USF.COMPS:C10:1,2015-10-01T04:05:00Z,27.1690,-82.9260,74.35,1111122 
COMPS,ioos:station:USF.COMPS:C10:1,2015-10-01T04:35:00Z,27.1690,-82.9260,74.72,1111122 
COMPS,ioos:station:USF.COMPS:C10:1,2015-10-01T05:05:00Z,27.1690,-82.9260,74.15,1111122 
COMPS,ioos:station:USF.COMPS:C10:1,2015-10-01T05:35:00Z,27.1690,-82.9260,73.24,1111122 
COMPS,ioos:station:USF.COMPS:C10:1,2015-10-01T06:05:00Z,27.1690,-82.9260,75.0,1111122 
COMPS,ioos:station:USF.COMPS:C10:1,2015-10-01T06:35:00Z,27.1690,-82.9260,72.74,1111122 
COMPS,ioos:station:USF.COMPS:C10:1,2015-10-01T07:05:00Z,27.1690,-82.9260,73.46,1111122 
COMPS,ioos:station:USF.COMPS:C10:1,2015-10-01T07:35:00Z,27.1690,-82.9260,75.11,1111122 
COMPS,ioos:station:USF.COMPS:C10:1,2015-10-01T08:05:00Z,27.1690,-82.9260,76.38,1111122 
COMPS,ioos:station:USF.COMPS:C10:1,2015-10-01T08:35:00Z,27.1690,-82.9260,76.63,1111122 
COMPS,ioos:station:USF.COMPS:C10:1,2015-10-01T09:05:00Z,27.1690,-82.9260,76.3,1111122 
COMPS,ioos:station:USF.COMPS:C10:1,2015-10-01T09:35:00Z,27.1690,-82.9260,75.96,1111122 
COMPS,ioos:station:USF.COMPS:C10:1,2015-10-01T11:05:00Z,27.1690,-82.9260,75.93,1111122 
COMPS,ioos:station:USF.COMPS:C10:1,2015-10-01T11:35:00Z,27.1690,-82.9260,73.58,1111122 
COMPS,ioos:station:USF.COMPS:C10:1,2015-10-01T12:05:00Z,27.1690,-82.9260,74.7,1111122 
COMPS,ioos:station:USF.COMPS:C10:1,2015-10-01T12:35:00Z,27.1690,-82.9260,74.34,1111122 
COMPS,ioos:station:USF.COMPS:C10:1,2015-10-01T13:05:00Z,27.1690,-82.9260,74.66,1111122 
COMPS,ioos:station:USF.COMPS:C10:1,2015-10-01T13:35:00Z,27.1690,-82.9260,72.82,1111122 
COMPS,ioos:station:USF.COMPS:C10:1,2015-10-01T14:05:00Z,27.1690,-82.9260,71.98,1111122 
COMPS,ioos:station:USF.COMPS:C10:1,2015-10-01T14:35:00Z,27.1690,-82.9260,73.07,1111122 
COMPS,ioos:station:USF.COMPS:C10:1,2015-10-01T15:05:00Z,27.1690,-82.9260,73.2,1111122 
COMPS,ioos:station:USF.COMPS:C10:1,2015-10-01T15:35:00Z,27.1690,-82.9260,76.24,1111122 
COMPS,ioos:station:USF.COMPS:C10:1,2015-10-01T16:05:00Z,27.1690,-82.9260,74.29,1111122 
COMPS,ioos:station:USF.COMPS:C10:1,2015-10-01T16:35:00Z,27.1690,-82.9260,74.18,1111122 
COMPS,ioos:station:USF.COMPS:C10:1,2015-10-01T17:05:00Z,27.1690,-82.9260,75.83,1111122 
COMPS,ioos:station:USF.COMPS:C10:1,2015-10-01T17:35:00Z,27.1690,-82.9260,73.45,1111122 
COMPS,ioos:station:USF.COMPS:C10:1,2015-10-01T18:05:00Z,27.1690,-82.9260,73.38,1111122 
COMPS,ioos:station:USF.COMPS:C10:1,2015-10-01T18:35:00Z,27.1690,-82.9260,74.83,1111122 
COMPS,ioos:station:USF.COMPS:C10:1,2015-10-01T19:05:00Z,27.1690,-82.9260,76.62,1111122 
COMPS,ioos:station:USF.COMPS:C10:1,2015-10-01T19:35:00Z,27.1690,-82.9260,77.11,1111122 
COMPS,ioos:station:USF.COMPS:C10:1,2015-10-01T20:05:00Z,27.1690,-82.9260,75.99,1111122 
COMPS,ioos:station:USF.COMPS:C10:1,2015-10-01T20:35:00Z,27.1690,-82.9260,72.25,1111122 
COMPS,ioos:station:USF.COMPS:C10:1,2015-10-01T22:05:00Z,27.1690,-82.9260,74.0,1111122 
COMPS,ioos:station:USF.COMPS:C10:1,2015-10-01T23:05:00Z,27.1690,-82.9260,75.06,1111122 
COMPS,ioos:station:USF.COMPS:C10:1,2015-10-01T23:35:00Z,27.1690,-82.9260,74.88,1111122 
COMPS,ioos:station:USF.COMPS:C10:1,2015-10-02T00:05:00Z,27.1690,-82.9260,75.42,1111122 
COMPS,ioos:station:USF.COMPS:C10:1,2015-10-02T00:35:00Z,27.1690,-82.9260,77.64,1111122 
COMPS,ioos:station:USF.COMPS:C10:1,2015-10-02T01:05:00Z,27.1690,-82.9260,77.63,1111122 
COMPS,ioos:station:USF.COMPS:C10:1,2015-10-02T01:35:00Z,27.1690,-82.9260,81.34,1111122 
COMPS,ioos:station:USF.COMPS:C10:1,2015-10-02T07:05:00Z,27.1690,-82.9260,80.6,1111122 
COMPS,ioos:station:USF.COMPS:C10:1,2015-10-02T07:35:00Z,27.1690,-82.9260,81.86,1111122 
COMPS,ioos:station:USF.COMPS:C10:1,2015-10-02T09:05:00Z,27.1690,-82.9260,79.44,1111122 
COMPS,ioos:station:USF.COMPS:C10:1,2015-10-02T09:35:00Z,27.1690,-82.9260,80.5,1111122 
COMPS,ioos:station:USF.COMPS:C10:1,2015-10-02T13:05:00Z,27.1690,-82.9260,80.12,1111122 
COMPS,ioos:station:USF.COMPS:C10:1,2015-10-02T13:35:00Z,27.1690,-82.9260,78.78,1111122 
COMPS,ioos:station:USF.COMPS:C10:1,2015-10-02T14:05:00Z,27.1690,-82.9260,79.17,1111122 
COMPS,ioos:station:USF.COMPS:C10:1,2015-10-02T14:35:00Z,27.1690,-82.9260,76.35,1111122 
COMPS,ioos:station:USF.COMPS:C10:1,2015-10-03T04:05:00Z,27.1690,-82.9260,66.12,1111122 
COMPS,ioos:station:USF.COMPS:C10:1,2015-10-03T04:35:00Z,27.1690,-82.9260,65.37,1111122 
COMPS,ioos:station:USF.COMPS:C10:1,2015-10-03T05:05:00Z,27.1690,-82.9260,66.44,1111122 
COMPS,ioos:station:USF.COMPS:C10:1,2015-10-03T05:35:00Z,27.1690,-82.9260,67.03,1111122 
COMPS,ioos:station:USF.COMPS:C10:1,2015-10-03T06:05:00Z,27.1690,-82.9260,68.46,1111122 
COMPS,ioos:station:USF.COMPS:C10:1,2015-10-03T06:35:00Z,27.1690,-82.9260,65.1,1111122 
COMPS,ioos:station:USF.COMPS:C10:1,2015-10-03T07:05:00Z,27.1690,-82.9260,66.86,1111122 
COMPS,ioos:station:USF.COMPS:C10:1,2015-10-03T07:35:00Z,27.1690,-82.9260,66.31,1111122 
COMPS,ioos:station:USF.COMPS:C10:1,2015-10-03T08:05:00Z,27.1690,-82.9260,67.26,1111122 
COMPS,ioos:station:USF.COMPS:C10:1,2015-10-03T08:35:00Z,27.1690,-82.9260,64.52,1111122 
COMPS,ioos:station:USF.COMPS:C10:1,2015-10-03T09:05:00Z,27.1690,-82.9260,73.35,1111122 
COMPS,ioos:station:USF.COMPS:C10:1,2015-10-03T09:35:00Z,27.1690,-82.9260,72.75,1111122 
COMPS,ioos:station:USF.COMPS:C10:1,2015-10-03T10:05:00Z,27.1690,-82.9260,69.67,1111122 
COMPS,ioos:station:USF.COMPS:C10:1,2015-10-03T10:35:00Z,27.1690,-82.9260,69.29,1111122 
COMPS,ioos:station:USF.COMPS:C10:1,2015-10-03T11:05:00Z,27.1690,-82.9260,75.41,1111122 
COMPS,ioos:station:USF.COMPS:C10:1,2015-10-03T11:35:00Z,27.1690,-82.9260,71.68,1111122 
COMPS,ioos:station:USF.COMPS:C10:1,2015-10-03T12:05:00Z,27.1690,-82.9260,69.71,1111122 
COMPS,ioos:station:USF.COMPS:C10:1,2015-10-03T12:35:00Z,27.1690,-82.9260,84.19,1111122 
COMPS,ioos:station:USF.COMPS:C10:1,2015-10-03T13:05:00Z,27.1690,-82.9260,77.95,1111122 
COMPS,ioos:station:USF.COMPS:C10:1,2015-10-03T13:35:00Z,27.1690,-82.9260,77.53,1111122 
COMPS,ioos:station:USF.COMPS:C10:1,2015-10-03T14:05:00Z,27.1690,-82.9260,83.44,1111122 
COMPS,ioos:station:USF.COMPS:C10:1,2015-10-03T14:35:00Z,27.1690,-82.9260,77.42,1111122 
COMPS,ioos:station:USF.COMPS:C10:1,2015-10-03T15:05:00Z,27.1690,-82.9260,81.13,1111122 
COMPS,ioos:station:USF.COMPS:C10:1,2015-10-03T15:35:00Z,27.1690,-82.9260,81.82,1111122 
COMPS,ioos:station:USF.COMPS:C10:1,2015-10-03T16:05:00Z,27.1690,-82.9260,78.71,1111122 
COMPS,ioos:station:USF.COMPS:C10:1,2015-10-03T16:35:00Z,27.1690,-82.9260,69.4,1111122 
COMPS,ioos:station:USF.COMPS:C10:1,2015-10-03T17:05:00Z,27.1690,-82.9260,70.69,1111122 
COMPS,ioos:station:USF.COMPS:C10:1,2015-10-03T17:35:00Z,27.1690,-82.9260,68.48,1111122 
COMPS,ioos:station:USF.COMPS:C10:1,2015-10-03T18:05:00Z,27.1690,-82.9260,70.02,1111122 
COMPS,ioos:station:USF.COMPS:C10:1,2015-10-03T18:35:00Z,27.1690,-82.9260,71.13,1111122 
COMPS,ioos:station:USF.COMPS:C10:1,2015-10-03T19:05:00Z,27.1690,-82.9260,72.78,1111122 
COMPS,ioos:station:USF.COMPS:C10:1,2015-10-03T19:35:00Z,27.1690,-82.9260,74.86,1111122 
COMPS,ioos:station:USF.COMPS:C10:1,2015-10-03T20:05:00Z,27.1690,-82.9260,74.05,1111122 
COMPS,ioos:station:USF.COMPS:C10:1,2015-10-03T20:35:00Z,27.1690,-82.9260,73.06,1111122 
COMPS,ioos:station:USF.COMPS:C10:1,2015-10-03T22:05:00Z,27.1690,-82.9260,70.28,1111122 
COMPS,ioos:station:USF.COMPS:C10:1,2015-10-03T22:35:00Z,27.1690,-82.9260,70.17,1111122 
COMPS,ioos:station:USF.COMPS:C10:1,2015-10-03T23:05:00Z,27.1690,-82.9260,72.54,1111122 
COMPS,ioos:station:USF.COMPS:C10:1,2015-10-03T23:35:00Z,27.1690,-82.9260,73.62,1111122 
COMPS,ioos:station:USF.COMPS:C10:1,2015-10-04T00:05:00Z,27.1690,-82.9260,76.88,1111122 
COMPS,ioos:station:USF.COMPS:C10:1,2015-10-04T00:35:00Z,27.1690,-82.9260,77.74,1111122 
COMPS,ioos:station:USF.COMPS:C10:1,2015-10-04T02:05:00Z,27.1690,-82.9260,69.38,1111122 
COMPS,ioos:station:USF.COMPS:C10:1,2015-10-04T02:35:00Z,27.1690,-82.9260,89.62,1111122 
COMPS,ioos:station:USF.COMPS:C10:1,2015-10-04T04:05:00Z,27.1690,-82.9260,65.39,1111122 
COMPS,ioos:station:USF.COMPS:C10:1,2015-10-04T04:35:00Z,27.1690,-82.9260,64.85,1111122 
COMPS,ioos:station:USF.COMPS:C10:1,2015-10-04T05:05:00Z,27.1690,-82.9260,69.02,1111122 
COMPS,ioos:station:USF.COMPS:C10:1,2015-10-04T05:35:00Z,27.1690,-82.9260,66.33,1111122 
COMPS,ioos:station:USF.COMPS:C10:1,2015-10-04T06:05:00Z,27.1690,-82.9260,66.38,1111122 
COMPS,ioos:station:USF.COMPS:C10:1,2015-10-04T06:35:00Z,27.1690,-82.9260,64.36,1111122 
COMPS,ioos:station:USF.COMPS:C10:1,2015-10-04T07:05:00Z,27.1690,-82.9260,64.38,1111122 
COMPS,ioos:station:USF.COMPS:C10:1,2015-10-04T07:35:00Z,27.1690,-82.9260,68.68,1111122 
COMPS,ioos:station:USF.COMPS:C10:1,2015-10-04T08:05:00Z,27.1690,-82.9260,66.25,1111122 
COMPS,ioos:station:USF.COMPS:C10:1,2015-10-04T08:35:00Z,27.1690,-82.9260,65.11,1111122 
COMPS,ioos:station:USF.COMPS:C10:1,2015-10-04T09:05:00Z,27.1690,-82.9260,65.38,1111122 
COMPS,ioos:station:USF.COMPS:C10:1,2015-10-04T09:35:00Z,27.1690,-82.9260,64.68,1111122 
COMPS,ioos:station:USF.COMPS:C10:1,2015-10-04T10:05:00Z,27.1690,-82.9260,66.23,1111122 
COMPS,ioos:station:USF.COMPS:C10:1,2015-10-04T10:35:00Z,27.1690,-82.9260,63.16,1111122 
COMPS,ioos:station:USF.COMPS:C10:1,2015-10-04T11:05:00Z,27.1690,-82.9260,63.8,1111122 
COMPS,ioos:station:USF.COMPS:C10:1,2015-10-04T11:35:00Z,27.1690,-82.9260,64.33,1111122 
COMPS,ioos:station:USF.COMPS:C10:1,2015-10-04T12:05:00Z,27.1690,-82.9260,67.49,1111122 
COMPS,ioos:station:USF.COMPS:C10:1,2015-10-04T12:35:00Z,27.1690,-82.9260,69.15,1111122 
COMPS,ioos:station:USF.COMPS:C10:1,2015-10-04T13:05:00Z,27.1690,-82.9260,70.3,1111122 
COMPS,ioos:station:USF.COMPS:C10:1,2015-10-04T13:35:00Z,27.1690,-82.9260,70.89,1111122 
COMPS,ioos:station:USF.COMPS:C10:1,2015-10-04T14:05:00Z,27.1690,-82.9260,68.06,1111122 
COMPS,ioos:station:USF.COMPS:C10:1,2015-10-04T14:35:00Z,27.1690,-82.9260,78.46,1111122 
COMPS,ioos:station:USF.COMPS:C10:1,2015-10-04T15:05:00Z,27.1690,-82.9260,72.38,1111122 
COMPS,ioos:station:USF.COMPS:C10:1,2015-10-04T15:35:00Z,27.1690,-82.9260,75.5,1111122 
COMPS,ioos:station:USF.COMPS:C10:1,2015-10-04T16:05:00Z,27.1690,-82.9260,71.08,1111122 
COMPS,ioos:station:USF.COMPS:C10:1,2015-10-04T16:35:00Z,27.1690,-82.9260,69.79,1111122 
COMPS,ioos:station:USF.COMPS:C10:1,2015-10-04T17:05:00Z,27.1690,-82.9260,70.63,1111122 
COMPS,ioos:station:USF.COMPS:C10:1,2015-10-04T17:35:00Z,27.1690,-82.9260,78.32,1111122 
COMPS,ioos:station:USF.COMPS:C10:1,2015-10-04T18:05:00Z,27.1690,-82.9260,73.7,1111122 
COMPS,ioos:station:USF.COMPS:C10:1,2015-10-04T18:35:00Z,27.1690,-82.9260,75.99,1111122 
COMPS,ioos:station:USF.COMPS:C10:1,2015-10-04T19:05:00Z,27.1690,-82.9260,76.91,1111122 
COMPS,ioos:station:USF.COMPS:C10:1,2015-10-04T19:35:00Z,27.1690,-82.9260,71.38,1111122 
COMPS,ioos:station:USF.COMPS:C10:1,2015-10-04T20:05:00Z,27.1690,-82.9260,70.36,1111122 
COMPS,ioos:station:USF.COMPS:C10:1,2015-10-04T20:35:00Z,27.1690,-82.9260,71.5,1111122 
COMPS,ioos:station:USF.COMPS:C10:1,2015-10-04T21:05:00Z,27.1690,-82.9260,74.28,1111122 
COMPS,ioos:station:USF.COMPS:C10:1,2015-10-04T21:35:00Z,27.1690,-82.9260,75.35,1111122 
COMPS,ioos:station:USF.COMPS:C10:1,2015-10-04T22:05:00Z,27.1690,-82.9260,76.43,1111122 
COMPS,ioos:station:USF.COMPS:C10:1,2015-10-04T22:35:00Z,27.1690,-82.9260,77.73,1111122 
COMPS,ioos:station:USF.COMPS:C10:1,2015-10-04T23:05:00Z,27.1690,-82.9260,80.28,1111122 
COMPS,ioos:station:USF.COMPS:C10:1,2015-10-04T23:35:00Z,27.1690,-82.9260,76.79,1111122 
COMPS,ioos:station:USF.COMPS:C10:1,2015-10-05T00:05:00Z,27.1690,-82.9260,77.78,1111122 
COMPS,ioos:station:USF.COMPS:C10:1,2015-10-05T00:35:00Z,27.1690,-82.9260,75.46,1111122 
COMPS,ioos:station:USF.COMPS:C10:1,2015-10-05T01:05:00Z,27.1690,-82.9260,74.6,1111122 
COMPS,ioos:station:USF.COMPS:C10:1,2015-10-05T01:35:00Z,27.1690,-82.9260,73.69,1111122 
COMPS,ioos:station:USF.COMPS:C10:1,2015-10-05T02:05:00Z,27.1690,-82.9260,76.33,1111122 
COMPS,ioos:station:USF.COMPS:C10:1,2015-10-05T02:35:00Z,27.1690,-82.9260,78.11,1111122 
COMPS,ioos:station:USF.COMPS:C10:1,2015-10-05T04:05:00Z,27.1690,-82.9260,71.85,1111122 
COMPS,ioos:station:USF.COMPS:C10:1,2015-10-05T04:35:00Z,27.1690,-82.9260,70.74,1111122 
COMPS,ioos:station:USF.COMPS:C10:1,2015-10-05T05:05:00Z,27.1690,-82.9260,79.66,1111122 
COMPS,ioos:station:USF.COMPS:C10:1,2015-10-05T05:35:00Z,27.1690,-82.9260,80.66,1111122 
COMPS,ioos:station:USF.COMPS:C10:1,2015-10-05T06:05:00Z,27.1690,-82.9260,78.39,1111122 
COMPS,ioos:station:USF.COMPS:C10:1,2015-10-05T06:35:00Z,27.1690,-82.9260,81.25,1111122 
COMPS,ioos:station:USF.COMPS:C10:1,2015-10-05T07:05:00Z,27.1690,-82.9260,85.1,1111122 
COMPS,ioos:station:USF.COMPS:C10:1,2015-10-05T07:35:00Z,27.1690,-82.9260,83.29,1111122 
COMPS,ioos:station:USF.COMPS:C10:1,2015-10-05T08:05:00Z,27.1690,-82.9260,77.62,1111122 
COMPS,ioos:station:USF.COMPS:C10:1,2015-10-05T08:35:00Z,27.1690,-82.9260,80.73,1111122 
COMPS,ioos:station:USF.COMPS:C10:1,2015-10-05T09:05:00Z,27.1690,-82.9260,82.58,1111122 
COMPS,ioos:station:USF.COMPS:C10:1,2015-10-05T09:35:00Z,27.1690,-82.9260,84.3,1111122 
COMPS,ioos:station:USF.COMPS:C10:1,2015-10-05T10:05:00Z,27.1690,-82.9260,78.64,1111122 
COMPS,ioos:station:USF.COMPS:C10:1,2015-10-05T10:35:00Z,27.1690,-82.9260,81.03,1111122 
COMPS,ioos:station:USF.COMPS:C10:1,2015-10-05T11:05:00Z,27.1690,-82.9260,77.43,1111122 
COMPS,ioos:station:USF.COMPS:C10:1,2015-10-05T11:35:00Z,27.1690,-82.9260,70.83,1111122 
COMPS,ioos:station:USF.COMPS:C10:1,2015-10-05T12:05:00Z,27.1690,-82.9260,69.48,1111122 
COMPS,ioos:station:USF.COMPS:C10:1,2015-10-05T12:35:00Z,27.1690,-82.9260,63.41,1111122 
COMPS,ioos:station:USF.COMPS:C10:1,2015-10-05T13:05:00Z,27.1690,-82.9260,62.16,1111122 
COMPS,ioos:station:USF.COMPS:C10:1,2015-10-05T13:35:00Z,27.1690,-82.9260,64.07,1111122 
COMPS,ioos:station:USF.COMPS:C10:1,2015-10-05T14:05:00Z,27.1690,-82.9260,68.34,1111122 
COMPS,ioos:station:USF.COMPS:C10:1,2015-10-05T14:35:00Z,27.1690,-82.9260,77.41,1111122 
COMPS,ioos:station:USF.COMPS:C10:1,2015-10-05T15:05:00Z,27.1690,-82.9260,75.5,1111122 
COMPS,ioos:station:USF.COMPS:C10:1,2015-10-05T15:35:00Z,27.1690,-82.9260,73.24,1111122 
COMPS,ioos:station:USF.COMPS:C10:1,2015-10-05T16:05:00Z,27.1690,-82.9260,77.56,1111122 
COMPS,ioos:station:USF.COMPS:C10:1,2015-10-05T16:35:00Z,27.1690,-82.9260,74.52,1111122 
COMPS,ioos:station:USF.COMPS:C10:1,2015-10-05T17:05:00Z,27.1690,-82.9260,74.64,1111122 
COMPS,ioos:station:USF.COMPS:C10:1,2015-10-05T17:35:00Z,27.1690,-82.9260,76.18,1111122 
COMPS,ioos:station:USF.COMPS:C10:1,2015-10-05T18:05:00Z,27.1690,-82.9260,70.87,1111122 
COMPS,ioos:station:USF.COMPS:C10:1,2015-10-05T18:35:00Z,27.1690,-82.9260,71.31,1111122 
COMPS,ioos:station:USF.COMPS:C10:1,2015-10-05T19:05:00Z,27.1690,-82.9260,70.91,1111122 
COMPS,ioos:station:USF.COMPS:C10:1,2015-10-05T19:35:00Z,27.1690,-82.9260,76.32,1111122 
COMPS,ioos:station:USF.COMPS:C10:1,2015-10-05T21:05:00Z,27.1690,-82.9260,75.34,1111122 
COMPS,ioos:station:USF.COMPS:C10:1,2015-10-05T21:35:00Z,27.1690,-82.9260,77.33,1111122 
COMPS,ioos:station:USF.COMPS:C10:1,2015-10-05T22:05:00Z,27.1690,-82.9260,84.15,1111122 
COMPS,ioos:station:USF.COMPS:C10:1,2015-10-05T22:35:00Z,27.1690,-82.9260,76.72,1111122 
COMPS,ioos:station:USF.COMPS:C10:1,2015-10-05T23:05:00Z,27.1690,-82.9260,74.46,1111122 
COMPS,ioos:station:USF.COMPS:C10:1,2015-10-05T23:35:00Z,27.1690,-82.9260,74.48,1111122 
COMPS,ioos:station:USF.COMPS:C10:1,2015-10-06T00:05:00Z,27.1690,-82.9260,78.29,1111122 
COMPS,ioos:station:USF.COMPS:C10:1,2015-10-06T00:35:00Z,27.1690,-82.9260,76.91,1111122 
COMPS,ioos:station:USF.COMPS:C10:1,2015-10-06T02:05:00Z,27.1690,-82.9260,75.99,1111122 
COMPS,ioos:station:USF.COMPS:C10:1,2015-10-06T02:35:00Z,27.1690,-82.9260,74.8,1111122 
COMPS,ioos:station:USF.COMPS:C10:1,2015-10-06T04:05:00Z,27.1690,-82.9260,77.97,1111122 
COMPS,ioos:station:USF.COMPS:C10:1,2015-10-06T04:35:00Z,27.1690,-82.9260,73.39,1111122 
COMPS,ioos:station:USF.COMPS:C10:1,2015-10-06T05:05:00Z,27.1690,-82.9260,73.89,1111122 
COMPS,ioos:station:USF.COMPS:C10:1,2015-10-06T05:35:00Z,27.1690,-82.9260,71.8,1111122 
COMPS,ioos:station:USF.COMPS:C10:1,2015-10-06T06:05:00Z,27.1690,-82.9260,69.19,1111122 
COMPS,ioos:station:USF.COMPS:C10:1,2015-10-06T06:35:00Z,27.1690,-82.9260,69.8,1111122 
COMPS,ioos:station:USF.COMPS:C10:1,2015-10-06T07:05:00Z,27.1690,-82.9260,69.71,1111122 
COMPS,ioos:station:USF.COMPS:C10:1,2015-10-06T07:35:00Z,27.1690,-82.9260,70.27,1111122 
COMPS,ioos:station:USF.COMPS:C10:1,2015-10-06T08:05:00Z,27.1690,-82.9260,70.85,1111122 
COMPS,ioos:station:USF.COMPS:C10:1,2015-10-06T08:35:00Z,27.1690,-82.9260,70.91,1111122 
COMPS,ioos:station:USF.COMPS:C10:1,2015-10-06T09:05:00Z,27.1690,-82.9260,69.84,1111122 
COMPS,ioos:station:USF.COMPS:C10:1,2015-10-06T09:35:00Z,27.1690,-82.9260,71.82,1111122 
COMPS,ioos:station:USF.COMPS:C10:1,2015-10-06T11:05:00Z,27.1690,-82.9260,86.33,1111122 
COMPS,ioos:station:USF.COMPS:C10:1,2015-10-06T11:35:00Z,27.1690,-82.9260,86.34,1111122 
COMPS,ioos:station:USF.COMPS:C10:1,2015-10-06T12:05:00Z,27.1690,-82.9260,86.91,1111122 
COMPS,ioos:station:USF.COMPS:C10:1,2015-10-06T12:35:00Z,27.1690,-82.9260,87.08,1111122 
COMPS,ioos:station:USF.COMPS:C10:1,2015-10-06T13:05:00Z,27.1690,-82.9260,87.48,1111122 
COMPS,ioos:station:USF.COMPS:C10:1,2015-10-06T13:35:00Z,27.1690,-82.9260,87.12,1111122 
COMPS,ioos:station:USF.COMPS:C10:1,2015-10-06T14:05:00Z,27.1690,-82.9260,85.26,1111122 
COMPS,ioos:station:USF.COMPS:C10:1,2015-10-06T14:35:00Z,27.1690,-82.9260,85.07,1111122 
COMPS,ioos:station:USF.COMPS:C10:1,2015-10-06T16:05:00Z,27.1690,-82.9260,79.01,1111122 
COMPS,ioos:station:USF.COMPS:C10:1,2015-10-06T16:35:00Z,27.1690,-82.9260,82.33,1111122 
COMPS,ioos:station:USF.COMPS:C10:1,2015-10-06T18:05:00Z,27.1690,-82.9260,79.25,1111122 
COMPS,ioos:station:USF.COMPS:C10:1,2015-10-06T18:35:00Z,27.1690,-82.9260,78.19,1111122 
COMPS,ioos:station:USF.COMPS:C10:1,2015-10-06T19:05:00Z,27.1690,-82.9260,76.68,1111122 
COMPS,ioos:station:USF.COMPS:C10:1,2015-10-06T19:35:00Z,27.1690,-82.9260,75.07,1111122 
COMPS,ioos:station:USF.COMPS:C10:1,2015-10-06T20:05:00Z,27.1690,-82.9260,73.88,1111122 
COMPS,ioos:station:USF.COMPS:C10:1,2015-10-06T20:35:00Z,27.1690,-82.9260,75.05,1111122 
COMPS,ioos:station:USF.COMPS:C10:1,2015-10-06T21:05:00Z,27.1690,-82.9260,78.08,1111122 
COMPS,ioos:station:USF.COMPS:C10:1,2015-10-06T21:35:00Z,27.1690,-82.9260,78.78,1111122 
COMPS,ioos:station:USF.COMPS:C10:1,2015-10-06T22:05:00Z,27.1690,-82.9260,80.1,1111122 
COMPS,ioos:station:USF.COMPS:C10:1,2015-10-06T22:35:00Z,27.1690,-82.9260,80.86,1111122 
COMPS,ioos:station:USF.COMPS:C10:1,2015-10-06T23:05:00Z,27.1690,-82.9260,81.27,1111122 
COMPS,ioos:station:USF.COMPS:C10:1,2015-10-06T23:35:00Z,27.1690,-82.9260,80.3,1111122 
COMPS,ioos:station:USF.COMPS:C10:1,2015-10-07T01:05:00Z,27.1690,-82.9260,81.3,1111122 
COMPS,ioos:station:USF.COMPS:C10:1,2015-10-07T01:35:00Z,27.1690,-82.9260,81.73,1111122 
COMPS,ioos:station:USF.COMPS:C10:1,2015-10-07T05:05:00Z,27.1690,-82.9260,77.88,1111122 
COMPS,ioos:station:USF.COMPS:C10:1,2015-10-07T05:35:00Z,27.1690,-82.9260,76.04,1111122 
COMPS,ioos:station:USF.COMPS:C10:1,2015-10-07T06:05:00Z,27.1690,-82.9260,77.22,1111122 
COMPS,ioos:station:USF.COMPS:C10:1,2015-10-07T06:35:00Z,27.1690,-82.9260,79.07,1111122 
COMPS,ioos:station:USF.COMPS:C10:1,2015-10-07T07:05:00Z,27.1690,-82.9260,79.37,1111122 
COMPS,ioos:station:USF.COMPS:C10:1,2015-10-07T07:35:00Z,27.1690,-82.9260,83.5,1111122 
COMPS,ioos:station:USF.COMPS:C10:1,2015-10-07T08:05:00Z,27.1690,-82.9260,84.59,1111122 
COMPS,ioos:station:USF.COMPS:C10:1,2015-10-07T08:35:00Z,27.1690,-82.9260,84.65,1111122 
COMPS,ioos:station:USF.COMPS:C10:1,2015-10-07T09:05:00Z,27.1690,-82.9260,83.84,1111122 
COMPS,ioos:station:USF.COMPS:C10:1,2015-10-07T09:35:00Z,27.1690,-82.9260,84.81,1111122 
COMPS,ioos:station:USF.COMPS:C10:1,2015-10-07T10:05:00Z,27.1690,-82.9260,84.54,1111122 
COMPS,ioos:station:USF.COMPS:C10:1,2015-10-07T10:35:00Z,27.1690,-82.9260,83.61,1111122 
COMPS,ioos:station:USF.COMPS:C10:1,2015-10-07T11:05:00Z,27.1690,-82.9260,83.77,1111122 
COMPS,ioos:station:USF.COMPS:C10:1,2015-10-07T11:35:00Z,27.1690,-82.9260,84.38,1111122 
COMPS,ioos:station:USF.COMPS:C10:1,2015-10-07T12:05:00Z,27.1690,-82.9260,83.4,1111122 
COMPS,ioos:station:USF.COMPS:C10:1,2015-10-07T12:35:00Z,27.1690,-82.9260,82.22,1111122 
COMPS,ioos:station:USF.COMPS:C10:1,2015-10-07T13:05:00Z,27.1690,-82.9260,82.71,1111122 
COMPS,ioos:station:USF.COMPS:C10:1,2015-10-07T13:35:00Z,27.1690,-82.9260,81.24,1111122 
COMPS,ioos:station:USF.COMPS:C10:1,2015-10-07T14:05:00Z,27.1690,-82.9260,80.07,1111122 
COMPS,ioos:station:USF.COMPS:C10:1,2015-10-07T14:35:00Z,27.1690,-82.9260,78.33,1111122 
COMPS,ioos:station:USF.COMPS:C10:1,2015-10-07T15:05:00Z,27.1690,-82.9260,79.58,1111122 
COMPS,ioos:station:USF.COMPS:C10:1,2015-10-07T15:35:00Z,27.1690,-82.9260,76.98,1111122 
COMPS,ioos:station:USF.COMPS:C10:1,2015-10-07T16:05:00Z,27.1690,-82.9260,75.17,1111122 
COMPS,ioos:station:USF.COMPS:C10:1,2015-10-07T16:35:00Z,27.1690,-82.9260,75.73,1111122 
COMPS,ioos:station:USF.COMPS:C10:1,2015-10-07T17:05:00Z,27.1690,-82.9260,74.26,1111122 
COMPS,ioos:station:USF.COMPS:C10:1,2015-10-07T17:35:00Z,27.1690,-82.9260,74.07,1111122 
COMPS,ioos:station:USF.COMPS:C10:1,2015-10-07T18:05:00Z,27.1690,-82.9260,73.12,1111122 
COMPS,ioos:station:USF.COMPS:C10:1,2015-10-07T18:35:00Z,27.1690,-82.9260,71.91,1111122 
COMPS,ioos:station:USF.COMPS:C10:1,2015-10-07T19:05:00Z,27.1690,-82.9260,72.68,1111122 
COMPS,ioos:station:USF.COMPS:C10:1,2015-10-07T19:35:00Z,27.1690,-82.9260,73.93,1111122 
COMPS,ioos:station:USF.COMPS:C10:1,2015-10-07T20:05:00Z,27.1690,-82.9260,75.09,1111122 
COMPS,ioos:station:USF.COMPS:C10:1,2015-10-07T20:35:00Z,27.1690,-82.9260,74.24,1111122 
COMPS,ioos:station:USF.COMPS:C10:1,2015-10-07T21:05:00Z,27.1690,-82.9260,71.29,1111122 
COMPS,ioos:station:USF.COMPS:C10:1,2015-10-07T21:35:00Z,27.1690,-82.9260,70.79,1111122 
COMPS,ioos:station:USF.COMPS:C10:1,2015-10-07T22:05:00Z,27.1690,-82.9260,73.86,1111122 
COMPS,ioos:station:USF.COMPS:C10:1,2015-10-07T22:35:00Z,27.1690,-82.9260,75.46,1111122 
COMPS,ioos:station:USF.COMPS:C10:1,2015-10-08T00:05:00Z,27.1690,-82.9260,77.09,1111122 
COMPS,ioos:station:USF.COMPS:C10:1,2015-10-08T00:35:00Z,27.1690,-82.9260,77.51,1111122 
COMPS,ioos:station:USF.COMPS:C10:1,2015-10-08T01:05:00Z,27.1690,-82.9260,78.02,1111122 
COMPS,ioos:station:USF.COMPS:C10:1,2015-10-08T01:35:00Z,27.1690,-82.9260,78.54,1111122 
COMPS,ioos:station:USF.COMPS:C10:1,2015-10-08T04:05:00Z,27.1690,-82.9260,79.71,1111122 
COMPS,ioos:station:USF.COMPS:C10:1,2015-10-08T04:35:00Z,27.1690,-82.9260,80.78,1111122 
COMPS,ioos:station:USF.COMPS:C10:1,2015-10-08T05:05:00Z,27.1690,-82.9260,80.68,1111122 
COMPS,ioos:station:USF.COMPS:C10:1,2015-10-08T05:35:00Z,27.1690,-82.9260,80.39,1111122 
COMPS,ioos:station:USF.COMPS:C10:1,2015-10-08T06:05:00Z,27.1690,-82.9260,81.1,1111122 
COMPS,ioos:station:USF.COMPS:C10:1,2015-10-08T06:35:00Z,27.1690,-82.9260,82.25,1111122 
COMPS,ioos:station:USF.COMPS:C10:1,2015-10-08T07:05:00Z,27.1690,-82.9260,82.46,1111122 
COMPS,ioos:station:USF.COMPS:C10:1,2015-10-08T07:35:00Z,27.1690,-82.9260,82.82,1111122 
COMPS,ioos:station:USF.COMPS:C10:1,2015-10-08T08:05:00Z,27.1690,-82.9260,82.26,1111122 
COMPS,ioos:station:USF.COMPS:C10:1,2015-10-08T08:35:00Z,27.1690,-82.9260,82.56,1111122 
COMPS,ioos:station:USF.COMPS:C10:1,2015-10-08T09:05:00Z,27.1690,-82.9260,82.34,1111122 
COMPS,ioos:station:USF.COMPS:C10:1,2015-10-08T09:35:00Z,27.1690,-82.9260,81.53,1111122 
COMPS,ioos:station:USF.COMPS:C10:1,2015-10-08T10:05:00Z,27.1690,-82.9260,82.38,1111122 